Hourly Weather Balho

Today, 25 September, Friday

Time Temperature Precipitation Wind Pressure Humidity
00:00 +38°C° 0 mm 3 mps 732 mmHg 38%
01:00 +37°C° 0 mm 2 mps 732 mmHg 38%
02:00 +36°C° 0 mm 1 mps 732 mmHg 39%
03:00 +35°C° 0 mm 1 mps 731 mmHg 41%
04:00 +35°C° 0 mm 1 mps 732 mmHg 42%
05:00 +35°C° 0 mm 1 mps 732 mmHg 42%
06:00 +32°C° 0 mm 0 mps 732 mmHg 43%
07:00 +33°C° 0 mm 0 mps 733 mmHg 40%
08:00 +34°C° 0 mm 0 mps 733 mmHg 36%
09:00 +35°C° 0 mm 0 mps 734 mmHg 33%
10:00 +39°C° 0 mm 1 mps 733 mmHg 30%
11:00 +41°C° 0 mm 1 mps 733 mmHg 26%
12:00 +42°C° 0 mm 1 mps 733 mmHg 23%
13:00 +42°C° 0 mm 2 mps 732 mmHg 22%
14:00 +42°C° 0 mm 2 mps 731 mmHg 21%
15:00 +43°C° 0 mm 3 mps 731 mmHg 20%
16:00 +43°C° 0 mm 3 mps 731 mmHg 20%
17:00 +43°C° 0 mm 3 mps 731 mmHg 21%
18:00 +43°C° 0 mm 3 mps 731 mmHg 21%
19:00 +42°C° 0 mm 3 mps 731 mmHg 25%
20:00 +40°C° 0 mm 3 mps 731 mmHg 28%
21:00 +40°C° 0 mm 3 mps 732 mmHg 32%
22:00 +39°C° 0 mm 3 mps 732 mmHg 35%
23:00 +38°C° 0 mm 3 mps 732 mmHg 39%

Tomorrow, 26 September, Saturday

Time Temperature Precipitation Wind Pressure Humidity
00:00 +37°C° 0 mm 2 mps 732 mmHg 42%
01:00 +37°C° 0 mm 2 mps 731 mmHg 42%
02:00 +35°C° 0 mm 1 mps 731 mmHg 42%
03:00 +35°C° 0 mm 1 mps 731 mmHg 43%
04:00 +34°C° 0 mm 1 mps 731 mmHg 44%
05:00 +34°C° 0 mm 1 mps 731 mmHg 45%
06:00 +32°C° 0 mm 0 mps 731 mmHg 45%
07:00 +33°C° 0 mm 0 mps 732 mmHg 42%
08:00 +34°C° 0 mm 0 mps 732 mmHg 38%
09:00 +37°C° 0 mm 1 mps 733 mmHg 34%
10:00 +39°C° 0 mm 1 mps 732 mmHg 30%
11:00 +40°C° 0 mm 1 mps 732 mmHg 26%
12:00 +42°C° 0 mm 1 mps 732 mmHg 21%
13:00 +42°C° 0 mm 2 mps 731 mmHg 19%
14:00 +43°C° 0 mm 2 mps 730 mmHg 18%
15:00 +45°C° 0 mm 3 mps 730 mmHg 16%
16:00 +44°C° 0 mm 4 mps 730 mmHg 17%
17:00 +45°C° 0 mm 5 mps 730 mmHg 19%
18:00 +44°C° 0 mm 6 mps 730 mmHg 21%
19:00 +42°C° 0 mm 5 mps 730 mmHg 24%
20:00 +41°C° 0 mm 4 mps 731 mmHg 27%
21:00 +39°C° 0 mm 3 mps 731 mmHg 30%
22:00 +38°C° 0 mm 3 mps 731 mmHg 31%
23:00 +38°C° 0 mm 2 mps 731 mmHg 33%

Day after tomorrow, 27 September, Sunday

Time Temperature Precipitation Wind Pressure Humidity
00:00 +37°C° 0 mm 2 mps 731 mmHg 34%
01:00 +36°C° 0 mm 2 mps 731 mmHg 36%
02:00 +35°C° 0 mm 1 mps 731 mmHg 37%
03:00 +34°C° 0 mm 1 mps 731 mmHg 39%
04:00 +34°C° 0 mm 1 mps 731 mmHg 41%
05:00 +31°C° 0 mm 0 mps 732 mmHg 43%
06:00 +31°C° 0 mm 0 mps 732 mmHg 45%
07:00 +34°C° 0 mm 1 mps 733 mmHg 41%
08:00 +35°C° 0 mm 1 mps 733 mmHg 38%
09:00 +36°C° 0 mm 1 mps 734 mmHg 34%
10:00 +37°C° 0 mm 1 mps 733 mmHg 30%
11:00 +40°C° 0 mm 1 mps 733 mmHg 25%
12:00 +41°C° 0 mm 1 mps 733 mmHg 20%
13:00 +42°C° 0 mm 1 mps 732 mmHg 18%
14:00 +43°C° 0 mm 2 mps 731 mmHg 17%
15:00 +43°C° 0 mm 2 mps 730 mmHg 15%
16:00 +44°C° 0 mm 3 mps 730 mmHg 17%
17:00 +43°C° 0 mm 4 mps 730 mmHg 20%
18:00 +43°C° 0 mm 5 mps 730 mmHg 22%
19:00 +42°C° 0 mm 5 mps 731 mmHg 28%
20:00 +40°C° 0 mm 6 mps 732 mmHg 33%
21:00 +39°C° 0 mm 6 mps 732 mmHg 39%
22:00 +37°C° 0 mm 5 mps 732 mmHg 39%
23:00 +37°C° 0 mm 4 mps 732 mmHg 39%

28 September, Monday

Time Temperature Precipitation Wind Pressure Humidity
00:00 +36°C° 0 mm 3 mps 732 mmHg 39%
01:00 +36°C° 0 mm 2 mps 732 mmHg 40%
02:00 +36°C° 0 mm 2 mps 732 mmHg 41%
03:00 +35°C° 0 mm 1 mps 732 mmHg 41%
04:00 +34°C° 0 mm 1 mps 732 mmHg 43%
05:00 +34°C° 0 mm 1 mps 733 mmHg 45%
06:00 +33°C° 0 mm 1 mps 733 mmHg 47%
07:00 +34°C° 0 mm 1 mps 733 mmHg 44%
08:00 +35°C° 0 mm 1 mps 734 mmHg 41%
09:00 +36°C° 0 mm 1 mps 734 mmHg 38%
10:00 +37°C° 0 mm 1 mps 734 mmHg 33%
11:00 +39°C° 0 mm 1 mps 734 mmHg 28%
12:00 +41°C° 0 mm 1 mps 733 mmHg 24%
13:00 +42°C° 0 mm 1 mps 733 mmHg 22%
14:00 +42°C° 0 mm 2 mps 732 mmHg 20%
15:00 +43°C° 0 mm 2 mps 731 mmHg 18%
16:00 +43°C° 0 mm 2 mps 731 mmHg 20%
17:00 +43°C° 0 mm 3 mps 731 mmHg 22%
18:00 +43°C° 0 mm 4 mps 731 mmHg 24%
19:00 +42°C° 0 mm 4 mps 732 mmHg 29%
20:00 +41°C° 0 mm 4 mps 732 mmHg 33%
21:00 +38°C° 0 mm 4 mps 733 mmHg 38%
22:00 +38°C° 0 mm 4 mps 733 mmHg 39%
23:00 +37°C° 0 mm 3 mps 733 mmHg 39%

29 September, Tuesday

Time Temperature Precipitation Wind Pressure Humidity
00:00 +36°C° 0 mm 3 mps 733 mmHg 40%
01:00 +36°C° 0 mm 2 mps 732 mmHg 41%
02:00 +36°C° 0 mm 2 mps 732 mmHg 42%
03:00 +34°C° 0 mm 1 mps 732 mmHg 43%
04:00 +34°C° 0 mm 1 mps 732 mmHg 46%
05:00 +33°C° 0 mm 1 mps 733 mmHg 49%
06:00 +33°C° 0 mm 1 mps 733 mmHg 52%
07:00 +34°C° 0 mm 1 mps 733 mmHg 48%
08:00 +35°C° 0 mm 1 mps 734 mmHg 44%
09:00 +34°C° 0 mm 0 mps 734 mmHg 39%
10:00 +37°C° 0 mm 1 mps 734 mmHg 34%
11:00 +40°C° 0 mm 1 mps 733 mmHg 29%
12:00 +41°C° 0 mm 1 mps 733 mmHg 24%
13:00 +42°C° 0 mm 1 mps 732 mmHg 22%
14:00 +43°C° 0 mm 2 mps 731 mmHg 19%
15:00 +45°C° 0 mm 2 mps 730 mmHg 16%
16:00 +44°C° 0 mm 3 mps 730 mmHg 20%
17:00 +43°C° 0 mm 4 mps 730 mmHg 25%
18:00 +42°C° 0 mm 5 mps 730 mmHg 29%
19:00 +41°C° 0 mm 4 mps 730 mmHg 32%
20:00 +40°C° 0 mm 4 mps 731 mmHg 36%
21:00 +38°C° 0 mm 3 mps 731 mmHg 39%
22:00 +37°C° 0 mm 3 mps 731 mmHg 43%
23:00 +36°C° 0 mm 3 mps 731 mmHg 46%

30 September, Wednesday

Time Temperature Precipitation Wind Pressure Humidity
00:00 +35°C° 0 mm 3 mps 731 mmHg 50%
01:00 +35°C° 0 mm 3 mps 731 mmHg 53%
02:00 +34°C° 0 mm 2 mps 731 mmHg 55%
03:00 +33°C° 0 mm 1 mps 730 mmHg 58%
04:00 +33°C° 0 mm 1 mps 731 mmHg 59%
05:00 +33°C° 0 mm 1 mps 731 mmHg 60%
06:00 +32°C° 0 mm 1 mps 731 mmHg 61%
07:00 +33°C° 0 mm 1 mps 732 mmHg 56%
08:00 +34°C° 0 mm 1 mps 732 mmHg 50%
09:00 +35°C° 0 mm 1 mps 733 mmHg 45%
10:00 +37°C° 0 mm 1 mps 732 mmHg 39%
11:00 +39°C° 0 mm 1 mps 732 mmHg 33%
12:00 +41°C° 0 mm 1 mps 731 mmHg 27%
13:00 +41°C° 0 mm 1 mps 731 mmHg 24%
14:00 +42°C° 0 mm 2 mps 730 mmHg 22%
15:00 +43°C° 0 mm 2 mps 729 mmHg 19%
16:00 +43°C° 0 mm 3 mps 729 mmHg 24%
17:00 +42°C° 0 mm 4 mps 729 mmHg 28%
18:00 +41°C° 0 mm 6 mps 729 mmHg 32%
19:00 +40°C° 0 mm 6 mps 729 mmHg 36%
20:00 +39°C° 0 mm 5 mps 730 mmHg 39%
21:00 +39°C° 0 mm 5 mps 730 mmHg 42%
22:00 +36°C° 0 mm 5 mps 730 mmHg 49%
23:00 +35°C° 0 mm 4 mps 730 mmHg 56%
Show more